Location: Falconara Alta
(43.6167°N, 13.4000°E)
Time: 22:14:10
(UTC+00:00)

Cosmos 220 Rocket - Pass Details

Date: 09 April 2020
Orbit: 574 x 618 km, 74.0° (Epoch: 25 May)

Event Time Altitude Azimuth Distance (km) Brightness Sun altitude
Rises 19:14:39 0° 345° (NNW) 2,842 8.1 -16.3°
Reaches altitude 10° 19:16:59 10° 352° (N) 1,944 7.1 -16.7°
Maximum altitude 19:21:07 43° 65° (ENE) 857 4.5 -17.4°
Enters shadow 19:22:15 35° 103° (ESE) 982 4.6 -17.5°
